USA 167

Last updated on Wed Sep 09 2026 00:02:58 GMT+0000 (Coordinated Universal Time)

1 27691U 03008A 26250.47336470 -.00000009 00000+0 00000+0 0 9993 2 27691 11.1218 42.6459 0003061 282.4385 69.7819 1.00273241 7594
UTC large
Height (km)
Speed (km/s)
/
Latitude / Longitude
Inclination (degrees)
Orbital Period (minutes)
Azimuth
Elevation
Range (km)
Doppler Factor

Next 0 passes for location: London (51.5072 / 0.1276)

No passes found over London.
USA 167